Theta_e
311 310 310 310 310 310 310 310 310 310 310 310 310 310 310 310 311 310 310 310 310 310 310 310 310 310 311 310 311 313 314 303 301 299 298 301 308 313 314 316 317 317 316 309 307 304 299 299 300 304 309 311 312 310 310 316 316 308 302 300 298 299 299 303 303 304 306 304 306 309 309 309 307 310 311 315 317 318 320 321 323 326 325 327 328 329 329 330
310 310 309 309 308 308 308 309 309 309 309 310 310 310 310 310 310 310 309 310 309 310 310 310 310 310 310 310 310 312 308 301 299 299 299 309 315 316 317 317 315 314 313 305 303 302 298 297 299 303 303 305 319 308 316 312 317 305 300 300 298 301 303 307 309 310 307 303 308 310 311 310 312 312 310 310 311 315 316 318 321 321 324 326 328 328 328 328
309 309 308 308 308 308 308 308 308 309 309 309 310 309 309 309 309 309 309 309 309 310 310 310 310 310 309 309 309 311 304 300 297 292 299 318 316 315 317 315 314 315 309 305 304 303 299 298 300 301 303 305 313 308 314 311 314 310 302 298 300 304 305 309 310 310 310 310 308 309 314 311 313 314 316 309 308 313 314 315 319 320 321 323 324 326 327 327
309 309 309 309 309 309 308 308 308 309 309 310 310 309 309 309 308 308 309 309 309 310 309 310 310 309 310 309 309 307 301 297 289 297 308 317 316 315 314 315 315 314 306 308 306 305 303 303 300 302 300 301 305 310 307 312 310 311 304 299 301 304 304 307 310 314 314 313 310 311 313 312 314 316 313 307 309 309 313 318 319 319 321 323 325 325 326 325
307 308 308 308 308 309 307 307 308 309 309 310 310 310 309 309 309 309 309 309 309 309 309 309 309 309 309 310 311 302 297 280 288 305 309 318 318 317 314 316 316 310 306 305 307 306 304 301 299 300 302 297 303 308 308 310 313 311 305 306 305 305 304 307 311 314 314 314 312 312 311 312 318 316 313 310 306 304 310 316 321 323 324 324 324 325 326 325
308 308 308 307 307 308 307 308 309 309 310 310 311 311 311 310 310 310 309 310 309 308 309 309 309 308 309 308 304 300 289 272 300 302 316 316 315 316 315 314 315 308 303 307 305 302 302 298 298 295 299 300 299 300 305 311 313 302 309 308 308 307 305 311 311 312 314 312 311 311 312 315 314 314 312 311 307 309 311 319 324 325 326 327 327 326 325 324
308 308 308 307 306 306 308 308 309 310 310 311 311 311 311 310 310 309 310 309 308 308 308 308 308 308 308 310 300 299 292 292 298 299 315 313 313 314 314 315 314 303 303 304 304 301 297 296 296 295 298 298 299 300 304 308 312 307 304 309 308 310 307 311 310 312 312 313 312 314 315 310 313 308 315 311 315 315 315 322 325 326 327 327 326 326 325 325
308 308 308 307 306 308 309 310 310 311 311 311 311 310 310 310 310 309 309 309 308 308 308 308 308 308 307 300 296 292 291 291 299 303 311 313 312 311 312 306 303 302 300 299 302 300 297 294 293 296 296 296 298 299 303 304 308 305 304 308 309 310 310 311 312 311 311 314 315 315 310 310 311 311 312 311 315 316 317 318 322 325 324 322 321 320 319 320
308 308 308 308 308 309 310 310 310 310 310 310 311 310 310 310 310 310 309 308 308 308 308 308 307 308 308 300 294 288 285 294 301 304 308 309 308 306 304 304 303 300 299 299 299 302 299 293 294 297 293 296 301 297 300 302 299 307 306 308 307 308 309 310 311 311 310 312 313 311 308 311 313 314 311 313 316 318 318 317 318 316 311 308 304 304 304 302
308 308 308 308 309 310 310 309 309 309 310 310 310 310 310 310 310 309 309 308 308 308 308 308 308 307 301 295 293 284 291 300 304 305 306 305 303 302 301 302 302 300 298 297 298 299 298 296 297 299 300 296 298 295 299 299 300 308 307 307 307 308 309 310 309 311 312 311 312 309 309 310 312 311 306 314 316 317 316 314 312 305 301 300 299 299 299 299
308 307 308 309 310 310 309 309 308 309 310 309 309 309 310 310 310 309 309 308 308 308 307 307 307 304 297 298 288 283 297 300 300 301 302 301 300 299 299 300 301 299 299 297 296 300 300 301 301 301 298 294 300 298 300 300 305 306 307 306 306 307 307 309 309 309 310 310 311 311 308 311 311 310 308 315 318 316 314 308 304 301 297 297 297 297 297 297
307 308 308 309 310 310 308 307 308 309 310 308 308 308 309 310 309 309 309 309 308 308 308 308 308 304 297 292 290 289 301 299 301 300 300 301 299 301 300 300 300 300 298 295 296 299 302 301 301 299 291 299 292 299 299 304 304 306 307 301 304 306 304 307 306 307 309 307 312 313 308 305 306 306 312 316 316 314 309 305 300 299 297 296 295 295 295 295
307 308 309 309 310 310 309 307 308 309 310 309 309 309 309 309 309 308 309 308 308 308 307 307 305 302 296 287 291 299 301 301 300 300 300 300 300 300 300 300 300 300 300 297 296 300 302 300 301 297 300 301 297 291 298 303 301 303 306 303 300 301 301 306 307 308 309 311 312 311 295 300 304 309 313 315 314 314 306 303 299 297 296 296 295 294 294 294
308 308 309 309 309 310 309 307 308 309 309 309 308 308 308 308 308 308 308 307 308 308 307 307 304 300 295 289 296 300 301 300 300 300 299 301 299 299 300 300 300 300 302 299 299 300 301 301 301 299 301 299 295 305 300 301 302 298 300 301 297 296 296 305 306 307 305 311 311 310 297 300 305 309 313 315 314 309 303 300 297 295 295 294 294 293 292 292
308 308 309 309 310 309 309 308 308 309 309 308 308 308 309 309 308 307 307 306 306 307 307 307 302 298 291 291 299 302 309 306 299 299 301 300 298 296 297 299 299 300 301 301 300 301 303 303 300 296 291 299 302 296 293 297 301 299 294 291 295 295 297 303 306 305 302 307 313 307 296 300 305 308 311 313 313 308 300 297 295 295 294 294 293 292 292 291
307 308 308 309 309 309 310 308 308 309 309 309 309 310 310 310 309 308 308 307 306 305 304 297 297 295 292 287 294 308 300 296 297 302 301 301 298 295 297 298 299 301 302 301 302 303 302 302 296 295 294 298 296 293 292 292 294 295 293 291 290 294 296 299 303 306 308 306 309 304 297 302 303 308 310 312 312 304 298 296 295 292 291 291 290 290 289 290
307 307 308 309 309 309 309 309 308 309 309 309 310 309 310 311 308 308 308 309 306 306 301 296 299 298 284 296 303 294 293 296 300 299 300 301 299 297 297 296 296 296 298 299 300 299 299 295 295 294 297 290 293 293 287 286 287 291 293 288 291 292 295 295 303 305 306 305 301 306 302 300 300 304 309 311 307 300 296 294 294 292 290 288 288 287 287 286
306 307 307 308 308 309 309 309 309 309 309 309 309 308 307 309 309 309 307 305 304 304 304 305 301 293 288 294 288 289 295 295 297 297 298 300 300 298 296 294 294 295 295 293 297 294 296 291 294 288 292 290 290 289 284 281 285 289 289 287 290 293 295 296 296 301 303 304 302 302 298 293 294 296 300 303 300 297 294 294 293 291 288 287 286 286 285 285
306 306 307 308 308 309 309 310 309 308 309 310 309 308 309 309 300 299 297 296 292 290 287 289 290 280 274 284 291 293 295 298 298 297 295 298 301 298 298 296 295 293 288 289 289 294 296 289 290 287 283 286 287 288 288 288 290 291 291 289 291 291 293 294 299 304 303 300 299 297 289 288 289 291 294 297 296 293 292 292 290 289 287 285 285 285 285 285
306 306 307 308 308 309 309 309 310 310 309 306 298 295 291 289 287 286 291 293 290 287 288 290 293 290 291 291 291 296 299 298 294 293 297 299 300 296 296 295 291 292 289 284 288 290 293 284 283 283 285 287 288 290 291 291 291 292 292 289 289 292 293 295 297 303 304 298 289 287 287 287 287 287 289 292 295 292 290 288 286 286 285 285 284 284 284 284
306 306 307 307 308 308 309 309 309 310 310 300 295 289 284 286 284 282 288 289 289 291 289 290 292 291 290 292 293 294 290 290 293 291 293 301 297 294 290 289 288 286 287 288 285 292 292 283 283 286 287 288 288 290 291 291 292 291 290 290 289 291 290 293 296 301 302 291 287 288 285 284 285 286 288 290 289 289 289 288 285 283 284 284 284 283 284 285
306 306 307 307 307 308 308 309 310 310 310 296 293 289 289 289 293 296 293 285 289 289 289 290 291 290 293 293 295 296 293 288 289 291 296 298 294 288 286 288 286 283 287 286 286 283 283 281 285 287 288 289 290 291 292 291 291 291 289 289 289 288 289 293 296 298 293 290 286 287 283 283 284 285 287 288 287 287 288 288 287 284 283 284 284 284 284 284
306 306 306 307 307 308 308 309 309 310 296 294 292 290 290 294 297 298 297 291 286 291 289 289 289 288 289 293 294 296 288 285 285 291 294 296 290 288 288 287 284 282 284 286 282 281 279 283 287 290 289 288 288 291 291 291 292 291 290 287 288 290 291 287 295 294 294 291 286 286 283 284 286 286 286 286 287 287 288 288 286 286 284 283 283 284 284 283
305 306 306 307 307 308 309 309 310 300 293 295 295 291 296 297 298 299 294 283 282 287 289 291 291 288 287 289 295 292 288 286 287 287 297 295 289 290 290 288 285 283 282 284 282 281 282 287 290 289 289 288 287 289 290 289 288 292 291 290 288 288 292 295 288 290 291 290 290 287 284 282 283 282 282 285 287 286 287 286 287 288 286 285 284 284 284 283
305 306 307 307 307 308 308 309 297 294 295 295 294 296 297 299 300 301 290 282 284 285 292 290 292 290 293 299 296 290 290 290 289 293 296 296 286 286 288 291 287 282 281 283 283 282 282 288 291 288 287 288 287 287 289 290 287 290 292 290 290 292 293 290 290 289 287 285 290 289 279 278 282 282 281 283 283 282 284 282 282 282 283 285 283 283 284 285
306 306 307 307 307 308 309 295 290 294 293 292 294 298 297 297 301 301 289 275 270 277 287 283 294 288 298 292 294 292 293 285 291 292 297 296 295 291 288 286 288 281 284 283 283 284 284 291 289 287 287 286 287 287 290 292 288 287 289 293 291 291 293 291 292 290 283 282 289 294 281 275 281 279 280 281 281 280 282 282 281 282 282 283 283 283 283 283
306 306 307 307 307 308 295 286 294 295 289 291 296 298 298 298 299 297 281 269 266 281 281 290 291 290 295 292 293 295 277 277 292 294 295 301 293 299 286 285 288 289 287 283 282 278 283 288 288 288 286 285 285 285 291 292 288 285 291 293 293 292 293 293 294 291 288 289 288 289 285 277 275 278 281 282 280 279 279 280 281 281 282 282 283 283 283 283
306 307 307 307 307 306 295 296 296 292 291 295 298 297 297 297 298 297 282 268 267 284 281 286 291 300 295 293 294 289 287 285 285 289 297 298 299 291 289 284 285 284 288 285 275 282 287 285 287 285 285 285 284 288 292 294 288 286 290 294 293 294 294 296 293 289 289 287 281 284 287 279 276 279 283 282 277 277 278 279 280 281 282 282 283 283 283 283
307 307 307 307 307 308 301 300 298 292 295 297 296 297 299 300 297 286 273 265 276 279 297 284 303 295 292 293 290 290 290 292 284 289 295 298 299 294 285 288 288 286 285 285 280 283 286 287 288 288 286 283 287 289 293 292 288 290 293 292 289 290 295 294 290 289 288 285 279 283 285 278 276 280 280 281 279 277 277 279 280 281 282 282 282 283 283 283
307 307 307 307 302 296 294 296 295 295 297 296 294 294 297 294 286 272 266 265 283 277 287 288 288 285 289 285 286 289 286 286 286 287 291 290 294 296 291 294 288 285 284 287 286 286 283 288 291 285 285 287 288 291 293 293 291 294 294 290 288 288 287 287 288 289 286 279 281 284 283 281 274 279 279 278 278 279 279 280 281 282 282 283 283 283 283 283
307 307 307 307 291 292 293 290 291 296 296 295 295 295 291 284 276 270 267 274 283 281 286 286 283 289 284 283 281 286 285 285 285 285 284 288 288 291 289 286 289 285 285 285 284 284 282 284 286 285 290 289 293 291 292 293 294 293 287 287 288 285 288 286 281 282 279 277 281 283 282 280 274 277 281 283 283 281 280 279 279 280 281 282 282 283 283 283
307 307 308 299 297 297 292 290 293 296 295 294 296 292 284 268 274 270 268 287 273 279 279 280 285 284 283 284 283 283 283 284 285 285 284 284 284 284 284 281 283 278 278 280 279 282 282 283 283 284 290 291 291 290 286 286 292 288 286 288 282 279 281 278 280 276 276 277 281 283 283 279 274 278 281 281 281 282 282 282 281 281 281 282 282 283 283 283
307 308 308 304 305 295 295 295 297 295 293 295 294 291 271 268 267 274 276 279 274 281 279 285 282 283 282 282 280 282 283 282 286 285 284 285 283 284 286 284 283 282 275 281 280 279 281 283 282 283 286 287 292 286 284 285 287 286 286 282 277 273 276 275 275 278 278 280 283 281 283 276 280 279 283 281 283 284 283 283 283 282 282 282 282 283 283 283
307 307 297 300 298 298 296 297 295 295 293 293 288 279 273 270 270 281 277 278 277 282 282 280 282 282 280 279 279 281 280 284 284 284 285 282 282 279 281 285 284 280 277 276 274 277 275 277 280 280 281 286 289 290 290 289 287 287 282 282 279 276 275 272 272 272 275 278 281 282 277 273 276 276 283 283 283 284 284 283 283 284 284 283 284 283 283 283
307 301 295 296 298 297 298 294 295 296 293 286 280 273 270 269 271 272 276 279 281 282 279 281 277 277 277 279 280 282 284 280 284 283 281 280 278 279 278 280 284 283 279 276 279 276 277 279 282 284 284 286 288 291 292 289 284 283 282 283 280 278 280 275 274 278 277 278 277 276 274 278 278 283 283 283 283 283 283 283 283 283 283 283 282 282 282 283
302 297 296 295 295 294 294 295 294 295 291 283 279 274 271 273 270 278 277 284 283 279 278 280 274 275 273 277 279 279 283 281 282 282 280 281 280 278 281 282 282 284 279 279 279 275 280 279 285 286 286 283 287 289 288 289 280 284 285 280 284 286 285 280 281 281 279 276 273 279 277 277 282 282 282 282 281 281 282 282 282 282 282 283 282 282 282 283
291 293 292 292 292 294 294 295 297 291 284 279 276 269 272 273 277 280 283 280 281 280 277 274 275 274 273 273 273 278 280 283 280 280 277 282 279 280 279 280 285 284 284 282 279 282 279 279 285 284 285 286 286 289 287 287 287 284 281 285 287 285 283 282 275 273 273 273 274 276 274 275 276 274 281 280 279 280 280 281 281 282 282 281 282 282 283 283
291 292 294 291 293 293 295 295 291 286 282 281 276 279 271 273 281 280 281 280 280 279 273 273 272 276 268 268 274 276 279 277 277 277 274 279 276 284 279 279 284 284 284 285 282 281 283 280 282 282 284 286 285 286 289 290 289 285 286 289 283 277 277 275 275 267 266 267 272 275 277 277 277 277 277 277 278 278 279 280 280 280 281 281 282 282 283 283
289 287 284 291 293 293 294 292 289 285 280 275 267 278 274 272 277 278 281 281 280 279 275 277 273 275 275 271 273 272 276 274 276 275 271 274 276 281 279 281 281 283 284 283 281 280 282 279 279 283 283 283 283 284 279 281 285 285 286 283 283 282 278 273 268 273 275 271 271 273 277 274 280 280 278 278 279 279 279 280 280 280 281 281 281 281 282 282
288 284 281 291 293 294 293 290 288 282 277 273 268 269 275 272 276 280 280 281 280 278 276 276 277 272 275 274 275 272 272 274 273 270 272 273 275 282 278 283 278 280 283 284 283 283 278 282 276 280 283 285 280 281 281 281 279 280 279 274 277 276 281 279 275 272 272 271 271 272 270 274 276 279 281 280 280 281 280 280 280 281 281 281 281 281 281 280
285 281 283 290 293 293 290 290 282 275 270 273 272 269 271 271 278 280 280 280 281 283 280 279 277 275 274 276 276 278 274 272 272 270 270 272 276 272 280 280 280 279 282 282 283 282 280 279 277 279 280 277 280 282 283 282 282 278 276 278 278 276 276 270 270 277 269 271 269 268 265 270 278 279 281 282 282 282 282 281 281 281 281 281 281 281 280 279
280 273 279 292 292 291 285 279 272 272 269 270 271 272 273 286 276 277 279 279 280 279 280 273 277 275 276 276 276 277 275 274 274 274 272 273 274 274 278 281 279 279 280 279 278 282 281 280 280 276 277 279 282 284 283 283 283 281 280 281 279 273 272 268 270 272 269 272 274 268 265 269 276 278 279 283 283 282 282 282 280 281 280 280 281 280 279 278
281 279 288 290 291 288 285 271 275 274 269 272 278 278 279 278 277 276 278 278 278 279 278 279 276 276 278 276 275 276 276 272 276 275 276 276 277 279 280 280 280 280 280 279 282 282 286 273 273 272 275 277 279 279 278 277 280 279 280 279 279 278 280 271 269 274 270 270 271 268 266 268 277 277 278 281 282 281 281 281 280 280 280 280 279 278 277 277
281 282 284 290 292 287 279 269 269 269 271 271 277 276 279 279 276 276 276 276 278 276 277 277 277 279 275 277 274 274 277 269 277 276 274 277 276 280 279 279 280 278 280 278 278 282 272 273 274 268 265 267 267 273 276 277 278 274 276 278 278 279 278 277 274 266 272 271 270 269 265 264 276 277 277 278 279 279 279 280 280 279 279 279 278 278 277 277
282 284 283 284 290 287 276 272 274 268 271 270 270 273 275 276 279 279 277 277 278 277 277 275 279 278 277 277 272 275 275 275 269 275 276 277 276 279 278 278 279 277 280 284 287 283 275 272 266 268 271 266 265 266 266 267 274 278 277 278 278 278 277 276 275 267 266 271 270 261 260 272 275 276 276 277 278 278 278 279 279 280 279 278 278 277 277 276
276 272 276 278 281 282 280 279 276 273 270 268 268 272 274 272 276 278 278 273 277 276 276 276 276 277 275 276 273 270 274 276 272 269 272 273 275 277 278 277 277 278 284 287 284 278 269 272 270 264 267 268 266 268 274 279 275 273 277 276 277 276 276 276 272 264 266 268 268 272 273 272 272 274 275 276 277 277 277 277 278 278 278 278 278 278 277 276
279 272 270 271 272 275 272 276 274 273 272 276 269 273 270 272 275 276 278 273 278 275 275 275 274 274 273 275 272 270 270 269 273 270 270 270 274 274 277 275 276 280 285 283 282 274 267 271 272 271 271 271 275 272 275 278 275 276 275 277 277 277 276 272 267 272 272 273 269 270 272 271 273 275 275 276 277 277 278 278 278 278 278 278 278 277 279 275
273 276 275 276 274 270 267 272 276 275 276 276 272 274 272 271 272 269 276 276 275 274 273 270 273 274 273 273 274 269 269 265 267 268 273 272 269 273 275 276 274 278 280 277 279 276 267 267 272 270 270 272 273 274 275 275 275 276 276 276 276 276 276 273 275 277 274 266 266 273 274 273 274 276 277 277 278 278 278 278 279 279 279 278 277 276 275 274
278 277 278 280 274 270 273 277 278 275 275 275 275 273 270 271 270 274 272 274 275 271 275 268 271 274 273 274 274 271 271 265 265 266 266 269 270 270 270 270 274 276 277 276 276 275 272 267 272 271 269 272 273 273 273 274 274 275 274 274 276 276 276 276 277 276 276 273 275 276 274 276 277 277 278 279 279 279 278 279 278 278 278 278 277 276 274 274
278 274 277 277 275 274 273 274 278 273 271 277 269 272 271 273 271 274 275 273 269 273 276 273 273 275 274 273 273 271 272 273 272 269 272 270 260 271 269 271 270 275 276 274 275 277 272 268 278 269 263 267 270 273 272 271 272 274 273 271 274 275 275 275 276 276 277 276 275 275 274 276 278 278 279 279 278 277 277 277 278 278 278 278 277 275 274 274
281 278 276 275 271 275 276 270 272 272 268 268 270 275 275 273 273 274 274 276 274 272 274 273 274 274 273 273 273 273 274 274 274 274 274 274 269 274 270 267 275 271 273 273 273 271 271 267 267 260 261 263 269 269 270 268 268 268 268 269 270 272 273 274 274 276 276 275 274 274 273 275 277 276 278 277 277 276 277 277 278 278 278 278 277 275 274 274
281 282 278 274 271 278 273 272 272 268 265 271 274 272 274 273 275 274 273 276 276 276 275 275 275 274 270 271 271 273 274 275 275 275 275 275 275 275 275 274 275 274 271 272 272 266 265 264 264 258 259 259 267 266 266 264 262 266 267 270 272 272 273 274 275 276 277 277 274 272 275 277 275 277 276 275 276 277 277 277 278 278 278 278 278 276 275 274
Wind_Speed
13 11 12 12 13 14 15 14 15 15 15 14 15 14 14 13 13 13 13 13 13 13 14 14 14 13 13 14 15 17 16 6 9 5 5 8 6 9 10 10 11 11 10 3 5 5 5 6 6 7 6 2 2 2 2 2 1 2 4 6 9 6 9 4 7 5 1 2 5 7 4 7 2 5 1 5 11 9 7 9 3 12 9 7 9 10 9 7
15 15 15 16 16 16 16 16 16 16 15 14 14 13 13 13 12 12 13 12 13 14 14 13 13 12 13 13 14 16 10 5 8 8 9 12 14 12 10 11 6 5 6 3 2 0 1 4 4 5 5 1 2 3 3 2 2 5 2 6 12 9 3 4 3 3 2 2 4 5 1 8 6 9 3 4 2 8 10 5 6 10 9 11 11 9 10 9
15 16 16 15 15 15 15 15 15 15 14 14 13 13 12 12 11 12 12 12 12 13 14 13 12 12 13 12 13 12 8 7 4 3 5 6 7 2 6 3 5 6 2 3 2 3 3 5 2 4 3 2 3 6 6 3 5 5 4 8 9 4 3 3 5 5 5 4 6 10 3 6 4 6 8 1 4 5 12 8 5 11 11 9 7 8 8 9
14 14 15 15 15 15 15 15 14 14 13 14 14 13 12 11 11 10 11 12 12 13 13 12 12 11 12 13 10 4 5 3 1 3 3 7 4 6 6 6 7 4 3 2 3 3 2 0 3 1 2 2 2 4 9 5 7 3 3 6 5 3 6 4 2 5 4 5 5 6 3 5 8 5 9 2 6 1 3 4 11 13 13 11 9 8 8 9
17 16 15 15 16 16 15 14 14 14 14 13 14 14 13 13 12 12 12 13 12 12 12 12 12 11 10 12 8 5 5 2 2 1 8 6 4 6 4 7 9 4 1 1 1 1 0 1 1 2 2 2 4 4 5 6 3 2 9 2 4 3 3 2 4 3 2 2 5 3 7 3 4 7 9 9 4 5 5 5 5 13 13 13 13 9 8 7
16 16 16 16 15 15 14 13 14 14 15 16 15 15 14 14 13 12 12 12 12 11 10 10 10 9 9 11 4 2 2 2 1 3 3 6 4 5 7 7 11 4 2 1 3 0 1 2 1 1 1 3 6 7 4 7 6 6 4 4 3 1 4 2 5 2 8 5 5 1 1 3 5 2 6 9 2 2 3 4 9 10 11 11 11 10 9 7
14 15 15 15 14 13 14 15 16 17 17 16 15 15 15 14 12 11 11 11 12 10 10 9 8 8 9 6 2 2 0 7 1 9 4 5 9 5 5 8 7 6 3 1 1 1 2 3 1 2 2 3 6 5 4 3 6 7 4 7 9 1 5 5 7 5 4 7 5 5 5 6 2 3 4 4 7 11 15 2 8 10 11 12 12 10 9 6
15 15 15 14 13 15 17 18 17 17 17 16 16 15 15 14 14 12 9 9 10 10 9 9 8 7 7 2 3 3 2 7 11 4 9 11 7 5 6 2 4 4 5 2 2 2 1 3 2 2 3 4 2 5 3 4 6 11 8 5 5 6 3 5 6 6 4 3 4 6 7 5 7 2 7 5 7 12 13 10 8 7 10 11 13 13 14 14
15 15 14 15 16 17 17 17 16 16 17 17 16 14 14 13 12 13 9 8 8 9 7 6 6 7 3 2 1 3 6 5 4 5 6 5 4 6 5 2 3 4 1 2 2 4 2 3 3 2 3 5 2 4 3 1 5 8 12 4 3 6 4 2 4 5 4 2 1 7 7 5 7 1 3 7 7 12 11 14 12 11 17 17 17 17 16 18
15 15 14 16 17 17 17 16 16 16 17 17 16 15 14 12 12 12 11 8 8 8 8 7 5 4 3 2 1 0 6 3 3 6 7 6 6 6 6 1 2 3 3 4 5 2 2 4 5 4 5 6 4 4 4 2 1 2 7 6 6 1 0 0 4 3 3 2 2 6 4 3 2 4 1 5 6 15 12 14 15 15 17 18 16 16 15 17
15 15 15 17 17 18 16 15 17 17 18 14 14 13 14 13 12 10 10 9 7 7 7 6 6 1 2 3 2 6 5 4 2 6 5 5 6 4 4 3 0 2 1 4 4 1 2 3 3 0 1 4 1 3 2 3 3 4 2 7 4 3 2 2 4 5 4 1 4 5 7 4 4 2 6 5 5 10 13 15 13 14 15 16 17 16 15 16
15 15 16 17 17 19 18 17 17 18 18 13 11 10 12 12 11 9 9 11 9 7 8 6 6 3 1 2 5 9 2 4 5 6 5 1 3 4 5 4 2 2 1 3 6 1 1 2 5 2 4 1 4 2 4 1 1 2 1 8 11 5 4 3 2 4 5 2 4 4 9 3 2 3 7 8 7 7 17 14 13 14 14 15 15 15 16 15
16 16 17 18 18 18 18 17 16 17 16 14 13 12 12 13 11 10 9 9 9 8 6 5 1 4 3 4 9 12 12 11 12 10 10 4 2 3 4 4 4 4 4 2 4 1 1 2 3 4 3 1 2 4 3 1 3 1 1 2 11 9 7 8 3 3 7 3 6 4 7 7 9 5 6 8 9 5 15 12 11 12 12 13 15 15 16 15
16 17 17 18 19 19 18 17 16 16 16 15 13 12 12 11 10 8 8 7 7 8 6 5 2 2 2 6 5 4 5 4 5 7 9 4 1 4 4 3 1 3 1 3 4 2 1 0 2 5 2 3 3 3 5 2 2 5 2 1 3 9 6 9 7 6 6 2 9 8 4 5 11 8 7 7 9 14 15 12 12 12 13 13 15 15 15 16
16 17 18 18 19 18 18 18 15 15 15 15 14 14 14 12 10 7 6 6 4 5 6 3 3 3 2 6 5 9 14 6 4 9 5 2 2 3 2 3 3 1 4 4 1 0 1 2 1 1 2 3 2 4 5 2 3 3 7 6 2 9 4 11 8 10 10 1 4 9 2 3 3 6 3 7 6 12 17 12 13 13 12 13 12 14 15 15
16 17 18 19 19 19 18 17 16 15 16 17 17 17 15 12 9 8 8 5 4 1 6 2 1 2 2 6 3 6 3 2 3 6 3 4 3 3 1 2 1 2 1 1 1 1 1 2 2 3 1 2 3 3 3 2 2 4 5 5 7 5 5 8 9 9 5 8 2 4 3 1 2 7 3 11 14 13 17 13 12 14 14 13 12 12 12 13
16 17 17 18 19 18 18 17 15 16 17 18 19 17 15 8 3 1 6 7 4 4 3 1 1 3 3 2 1 1 0 2 1 1 2 2 2 2 1 1 1 2 2 3 1 3 1 1 2 1 1 2 2 4 8 7 4 6 6 2 3 11 7 6 8 9 7 11 4 3 6 8 11 15 4 18 18 15 16 14 13 13 12 13 12 13 13 13
16 17 17 17 18 18 17 18 16 16 17 19 18 14 5 7 6 6 5 4 2 4 2 2 2 3 7 2 2 1 1 3 3 3 2 2 0 1 1 1 0 2 1 2 1 2 1 0 1 3 2 4 3 7 11 10 7 9 12 5 5 5 5 6 9 9 12 4 9 7 15 13 16 17 18 13 19 19 15 14 12 13 12 12 12 13 15 15
16 16 16 16 17 17 17 17 17 16 16 17 17 10 5 8 5 4 3 2 2 1 1 2 3 3 2 3 5 6 2 5 2 1 3 1 1 2 3 2 3 1 0 2 2 6 0 1 2 5 8 8 10 10 9 8 7 9 15 10 7 11 8 7 3 9 13 9 7 10 11 13 20 18 16 15 13 19 16 13 12 12 12 12 12 12 13 14
15 15 15 16 16 16 17 16 16 17 17 9 8 3 3 6 4 1 2 3 2 5 1 1 5 4 8 5 3 3 3 4 1 2 0 2 0 2 2 2 2 2 3 4 1 3 3 6 6 8 10 12 14 15 13 0 1 1 3 4 4 6 5 2 3 8 9 12 14 17 16 17 18 16 14 14 9 18 14 13 13 12 12 12 12 14 14 15
15 15 15 15 15 15 16 16 16 16 16 3 4 4 3 2 3 3 5 5 4 4 4 5 7 7 6 2 2 3 3 3 0 2 1 0 0 3 2 2 2 5 5 4 4 1 6 7 11 11 9 9 10 7 3 8 4 1 5 6 7 8 8 4 6 8 4 12 2 12 24 19 16 15 13 12 14 18 12 12 14 14 13 12 13 13 14 12
14 14 14 14 15 15 15 15 15 15 11 1 2 2 1 1 1 1 2 4 4 3 5 7 2 4 4 6 3 2 3 2 5 4 1 1 1 3 1 5 4 7 5 3 1 3 5 10 12 7 0 2 3 4 4 6 4 3 3 6 7 6 3 3 6 8 14 17 3 13 21 16 16 13 15 15 14 13 12 11 11 12 13 11 12 12 12 12
14 14 13 14 14 15 14 14 14 12 3 3 1 2 1 2 2 1 1 2 5 3 2 2 1 3 4 3 1 1 1 3 5 1 3 2 1 2 2 4 6 4 4 8 8 6 6 9 10 2 5 4 3 7 7 6 6 5 2 5 9 7 10 4 5 11 5 5 10 18 20 12 9 11 13 15 11 11 12 13 13 12 14 13 13 12 12 12
14 13 13 13 14 14 14 14 12 3 2 1 1 2 1 3 3 3 2 1 3 5 2 2 1 3 4 1 1 1 1 3 2 2 1 3 5 2 1 7 7 5 8 9 8 9 8 2 4 10 8 8 6 5 8 8 6 6 5 5 6 8 7 7 8 12 17 12 15 22 13 8 9 10 9 11 11 12 10 10 11 10 11 11 12 14 14 14
13 13 12 13 13 14 14 12 3 1 3 0 0 1 3 3 3 3 1 1 0 3 2 0 2 3 2 1 1 1 1 2 6 1 3 3 5 1 3 2 4 8 4 4 5 4 8 6 1 6 9 8 6 7 9 8 7 6 5 5 6 9 9 17 17 16 6 4 9 3 7 5 6 8 9 6 8 13 11 11 12 11 11 10 12 12 12 13
12 12 12 11 11 12 13 3 1 2 2 1 1 1 2 3 4 1 2 2 2 3 2 2 1 1 1 2 1 1 0 4 2 2 4 3 4 2 1 3 3 6 8 5 5 3 6 3 5 5 9 9 8 6 8 9 7 6 5 8 4 5 12 21 15 13 8 10 7 3 8 4 4 6 5 6 8 11 11 12 10 10 10 10 10 11 11 11
12 12 11 10 8 8 4 1 1 2 1 2 1 1 3 3 2 5 1 1 3 1 3 1 1 1 3 2 2 0 4 1 2 1 0 3 6 1 3 3 3 1 2 1 3 5 2 7 7 6 7 10 7 7 8 11 7 4 2 9 5 10 12 16 15 8 6 6 7 7 4 8 3 3 5 6 9 9 10 10 9 9 10 11 11 11 11 11
12 10 10 8 7 2 4 0 3 1 2 1 2 3 3 2 2 0 0 1 4 3 4 4 2 1 0 1 3 5 2 1 3 1 2 0 3 1 4 3 5 6 5 4 8 1 5 6 7 7 8 9 10 7 7 11 6 3 2 9 8 11 16 17 9 7 8 11 3 5 2 7 2 5 7 5 10 7 7 5 6 7 8 9 10 10 11 11
12 10 8 7 6 7 2 3 1 1 1 2 1 3 3 2 2 1 1 2 4 1 3 2 2 1 3 4 3 4 4 1 2 1 5 2 5 1 4 5 3 6 2 7 6 1 2 8 12 10 9 9 5 4 9 10 8 1 6 10 8 3 6 13 7 9 6 7 4 3 1 7 3 5 5 2 6 7 6 4 2 6 6 7 7 9 10 9
13 9 7 5 3 3 2 0 3 1 3 2 2 2 2 3 1 2 2 2 2 5 3 3 3 7 4 6 2 2 2 1 0 5 4 2 3 3 1 3 3 4 3 3 4 3 3 2 4 4 7 4 5 1 5 10 1 3 11 10 7 5 7 3 5 7 7 4 3 1 1 3 5 6 6 7 6 10 9 5 2 1 4 6 7 8 8 8
12 9 5 2 2 2 1 2 4 2 3 3 4 5 4 1 1 0 4 3 2 6 3 0 5 2 6 7 5 2 2 1 2 3 1 3 1 2 2 3 3 1 2 4 4 2 2 1 1 2 0 1 4 4 6 3 8 7 2 6 8 4 6 6 3 1 6 4 3 1 2 1 7 4 2 2 9 13 11 12 10 7 4 4 5 6 7 8
13 9 5 2 3 2 0 4 2 4 3 3 3 3 2 1 4 7 2 1 1 7 4 8 6 5 9 4 4 5 5 2 2 4 5 4 2 2 1 3 4 5 7 7 5 1 2 1 2 2 3 4 6 7 4 2 2 4 5 9 6 2 3 4 2 5 3 3 2 1 4 4 5 3 5 9 11 11 8 8 10 8 7 6 6 6 5 5
13 10 5 3 5 1 3 2 4 4 4 3 3 1 3 4 4 4 3 5 2 3 4 1 8 12 9 7 5 7 2 3 1 2 2 2 0 2 4 6 1 2 5 6 6 3 2 2 2 1 2 3 4 8 4 5 3 5 7 6 4 3 3 6 3 2 4 5 2 2 3 5 2 2 5 8 7 8 9 8 7 6 5 7 7 6 5 4
13 10 1 3 5 5 2 3 4 6 4 3 3 4 7 6 2 3 4 1 7 2 5 2 11 10 4 3 4 4 4 1 2 2 4 1 1 3 2 7 11 3 2 3 3 4 8 8 2 3 3 1 1 4 6 3 8 8 1 3 3 2 3 5 3 5 5 5 2 2 3 2 5 2 10 7 9 9 8 8 7 5 5 5 6 6 6 5
12 3 3 0 0 3 4 3 6 6 7 3 7 6 5 2 1 2 3 4 2 5 5 8 6 3 6 2 3 3 1 3 2 1 5 10 7 3 7 7 9 3 1 3 2 2 2 3 1 2 1 1 4 2 4 9 5 1 1 1 2 1 3 6 2 5 5 7 3 5 2 3 2 4 7 7 8 9 9 9 8 8 7 7 6 6 5 5
3 1 0 1 1 1 3 4 5 6 6 2 8 8 5 1 1 1 2 2 3 4 11 12 3 5 3 5 1 8 2 1 6 3 2 5 6 11 7 3 4 7 5 2 0 4 1 7 5 4 4 4 1 1 1 1 7 4 2 0 2 1 12 9 7 6 7 6 4 2 3 2 3 3 7 8 9 10 10 10 10 10 9 7 6 6 6 5
1 2 1 1 2 0 4 4 6 6 5 4 8 3 1 0 3 1 4 4 7 7 5 7 7 4 5 5 3 10 8 1 6 3 6 3 2 11 10 5 4 3 3 1 2 1 5 3 1 3 8 3 2 1 3 4 1 6 3 6 2 3 5 7 6 1 4 5 2 2 3 4 6 3 11 10 11 12 12 12 12 11 11 10 8 7 6 5
0 1 0 2 3 1 5 5 5 5 4 4 9 6 0 1 1 1 3 4 3 1 3 3 4 4 3 3 7 7 12 4 11 4 1 8 4 2 6 5 5 1 6 2 2 1 2 9 5 5 3 1 4 4 9 6 1 2 7 4 4 2 3 4 7 2 3 1 2 2 3 4 9 3 10 15 16 16 14 13 12 12 12 10 9 8 7 6
2 1 2 3 6 1 4 5 9 8 6 10 1 5 1 1 3 2 4 3 3 1 3 2 1 2 0 3 3 2 7 7 8 6 3 5 4 3 9 5 7 12 8 3 2 1 3 4 1 2 3 0 4 4 7 6 7 0 2 2 2 5 4 5 2 4 6 5 4 2 4 5 7 6 16 17 17 15 15 14 14 14 12 10 9 9 8 6
2 1 2 1 5 3 3 4 9 8 8 7 1 1 2 1 4 5 4 1 2 1 1 2 2 2 3 2 1 3 2 4 4 3 3 4 0 2 10 7 5 14 9 5 2 1 1 2 6 2 3 3 4 3 2 2 1 2 4 3 2 2 1 6 2 2 6 8 5 6 1 7 3 1 14 15 17 19 18 17 13 12 12 10 10 9 8 6
1 2 1 3 8 1 2 13 11 8 5 1 1 2 2 2 3 2 5 3 1 2 1 1 2 4 2 5 5 4 2 3 3 3 1 4 5 4 5 10 9 9 8 3 8 8 5 6 8 1 6 4 3 3 3 3 3 1 2 2 3 4 5 3 1 1 3 7 6 7 6 4 2 2 5 13 14 15 16 15 13 12 12 11 10 9 9 7
2 1 4 6 10 1 4 9 4 1 5 4 1 1 4 3 3 4 4 3 3 1 1 3 0 1 2 2 2 5 5 3 3 1 3 3 4 2 5 9 10 6 1 4 1 4 2 2 8 8 2 2 1 0 1 2 1 1 4 1 3 1 5 6 5 3 3 0 5 3 5 4 1 3 4 10 13 14 14 13 12 11 12 11 10 10 8 8
4 1 3 5 5 6 12 7 2 5 3 2 2 1 2 2 0 3 3 3 3 1 2 3 1 1 1 1 2 4 4 2 5 3 2 3 3 1 6 10 10 6 1 5 1 3 6 4 7 1 3 3 3 3 1 3 1 2 4 3 2 2 0 3 3 6 7 1 2 1 1 2 2 3 1 7 9 10 10 12 13 11 11 11 11 10 10 8
0 1 4 5 6 3 6 4 3 2 1 2 2 1 2 1 3 5 2 3 2 4 1 2 2 1 3 0 1 3 5 1 3 7 4 2 4 4 7 11 11 8 6 1 2 4 2 2 5 4 3 2 3 4 3 2 5 3 1 4 2 0 3 1 4 1 7 1 3 6 2 3 2 2 1 8 10 12 12 10 13 14 11 11 11 10 9 9
1 1 1 7 10 8 3 3 8 6 3 4 1 4 5 3 1 1 1 4 3 2 2 2 0 3 1 1 1 0 4 3 2 2 1 2 5 4 6 13 9 8 4 3 4 2 8 1 2 7 11 6 4 4 4 1 1 3 0 5 4 7 4 1 1 2 3 1 4 2 2 3 1 1 3 8 11 10 9 11 9 11 14 13 11 10 10 9
1 0 5 6 8 7 5 1 3 5 7 4 4 0 2 2 3 5 4 4 1 2 1 3 2 0 1 2 4 7 6 4 4 2 5 6 6 4 3 12 7 8 14 7 8 3 4 2 3 2 5 6 3 1 2 0 1 3 2 4 6 2 3 4 4 4 3 3 1 3 5 6 4 7 7 10 12 15 12 11 13 12 11 11 11 10 10 8
1 3 1 3 5 6 2 5 3 2 4 4 5 1 3 1 2 2 3 1 4 4 3 4 2 3 3 3 0 2 2 3 4 2 4 4 4 4 9 4 5 15 18 4 10 4 4 6 6 5 7 2 0 0 2 1 3 0 1 2 4 4 3 6 2 2 3 8 1 1 6 11 13 12 10 12 11 12 13 13 12 11 12 13 11 9 8 7
3 1 2 1 2 2 4 4 5 3 3 2 2 3 1 1 4 1 5 1 3 3 3 2 5 5 3 3 2 0 3 3 4 3 6 2 4 7 7 5 6 12 12 4 6 5 3 4 1 3 3 3 3 5 4 2 2 1 2 1 3 3 3 3 1 2 4 3 3 5 10 7 8 17 19 19 19 20 20 19 16 13 10 9 10 10 10 10
4 1 1 0 1 1 1 1 2 2 5 3 2 2 2 4 3 1 1 5 3 3 3 0 8 10 9 6 0 2 1 1 2 1 1 4 5 6 7 7 2 11 12 7 6 2 4 4 1 3 2 6 9 9 9 5 1 1 1 2 1 3 3 4 2 1 2 2 2 8 11 11 4 12 16 17 12 9 7 6 7 10 13 13 12 11 12 11
1 1 0 3 6 1 1 2 0 3 3 5 2 0 4 3 4 1 0 1 1 3 2 4 6 9 9 8 3 2 1 2 2 1 1 1 3 3 1 2 7 8 8 5 4 5 3 1 4 3 2 3 6 7 8 8 3 1 1 2 1 2 3 0 2 2 5 5 2 5 7 8 5 6 11 6 7 5 7 10 14 13 12 13 13 13 12 11
1 1 2 5 3 2 1 3 3 3 1 5 3 2 2 2 4 4 3 2 3 2 1 1 3 6 4 8 8 5 6 6 6 4 1 1 2 2 2 2 0 6 10 7 5 6 7 1 2 3 3 3 5 9 8 7 3 1 3 5 2 3 3 3 3 5 4 5 4 4 1 8 4 3 6 9 11 13 16 15 12 12 13 13 14 14 12 12
2 0 3 3 3 0 1 0 2 2 2 1 0 2 1 5 2 6 4 1 2 3 3 3 3 2 1 5 4 5 7 4 6 6 3 3 3 5 2 2 1 1 2 3 1 4 2 3 2 2 4 1 4 5 8 6 4 5 8 7 7 3 1 1 2 2 3 8 9 7 10 2 6 7 11 9 13 14 13 13 12 10 12 15 16 15 13 12
Wind_Direction
345 335 340 340 340 336 333 332 329 326 329 329 330 329 329 323 317 319 321 322 322 323 322 320 320 321 324 326 325 328 344 356 327 339 326 246 225 243 272 286 308 316 303 16 338 7 336 346 326 327 344 29 224 216 251 226 221 122 179 180 210 199 197 185 178 169 220 54 333 340 17 346 149 351 151 36 48 83 70 65 48 50 62 91 97 98 107 116
346 339 339 334 333 330 327 327 328 327 326 326 327 326 327 327 318 311 314 317 320 320 320 318 317 323 318 323 327 326 354 333 317 292 252 260 264 258 265 267 301 314 324 329 294 72 2 319 297 340 346 272 202 221 183 220 179 181 162 194 213 191 210 159 157 123 63 321 342 320 62 62 25 322 339 67 108 101 70 47 63 82 71 78 86 99 105 107
340 340 334 332 330 327 326 325 326 325 324 321 322 325 325 326 322 312 307 310 314 313 315 317 317 317 319 320 325 340 2 329 301 311 287 334 45 131 226 248 297 313 32 307 251 184 181 220 298 348 287 237 226 208 198 217 175 226 152 204 219 165 210 225 154 130 112 343 11 344 14 74 19 347 307 160 146 114 125 127 88 112 121 115 106 104 106 104
345 341 335 335 332 327 328 326 325 323 321 321 319 320 319 319 317 313 309 306 309 309 309 313 312 316 319 322 329 6 6 313 341 263 261 261 4 29 358 328 320 340 24 289 199 177 180 2 316 205 287 276 237 252 192 201 184 180 203 213 199 164 184 248 113 142 102 28 3 351 312 40 3 318 14 318 92 12 134 183 154 153 144 137 128 119 111 107
338 334 332 330 332 331 327 328 323 320 317 315 318 317 316 315 315 316 315 312 307 305 304 306 312 316 320 325 8 31 329 45 258 196 255 285 342 330 301 292 308 337 7 255 86 231 303 297 343 306 221 212 263 237 234 193 216 129 218 182 130 191 174 336 97 102 100 356 351 33 43 28 326 11 5 314 159 180 197 194 155 145 145 141 135 129 119 119
337 334 333 330 331 332 330 327 321 317 316 318 317 317 319 314 313 315 312 315 312 305 304 305 305 317 317 321 32 35 57 122 265 247 260 251 322 297 308 339 349 15 36 85 161 273 186 322 127 326 232 238 212 218 212 216 183 227 203 225 261 240 171 32 73 358 146 213 237 13 355 68 355 10 332 305 16 341 326 134 136 134 137 133 128 130 125 129
337 335 332 331 334 330 325 321 320 319 316 313 311 310 311 311 310 315 314 311 308 304 299 301 303 306 309 351 40 58 153 275 274 253 296 305 313 321 348 16 2 29 59 97 227 166 168 234 140 237 301 207 285 252 265 212 207 235 217 179 219 210 166 113 97 99 89 163 176 141 106 88 78 81 287 338 344 9 340 111 126 128 127 128 131 138 135 127
338 334 331 332 332 327 326 324 322 319 316 313 310 307 304 305 310 309 309 308 301 299 305 308 301 312 320 61 9 17 345 246 249 267 271 275 284 321 6 41 28 31 44 337 215 217 147 203 186 251 275 212 199 206 269 283 223 209 228 185 201 227 193 129 111 78 72 93 112 134 107 125 76 153 288 4 9 13 358 32 39 93 89 75 72 68 66 68
338 334 332 333 331 331 327 324 322 320 320 317 313 309 305 301 299 296 299 295 294 294 301 288 298 300 29 98 79 351 256 238 220 218 236 253 330 347 24 333 28 51 322 54 14 264 146 251 204 199 241 236 322 348 308 229 238 217 218 180 193 212 225 158 100 92 83 104 89 110 117 98 108 245 0 7 28 38 44 56 55 51 75 71 64 60 60 60
339 335 335 333 334 331 329 333 328 323 320 315 310 308 302 307 306 296 295 293 286 294 288 299 296 316 52 83 1 273 262 235 13 33 48 46 352 323 330 273 30 33 10 328 353 47 177 229 179 220 248 303 282 262 274 298 235 37 218 207 192 171 90 43 144 115 100 96 48 134 113 77 77 134 205 11 79 79 62 62 63 70 60 65 60 52 46 53
342 337 335 335 334 335 336 338 329 323 321 321 313 307 304 310 312 298 291 291 283 283 285 283 282 351 97 86 161 226 262 20 13 14 19 1 315 328 288 281 237 5 23 321 306 143 293 312 287 101 237 225 19 262 212 229 290 291 252 193 214 237 8 348 149 144 114 79 107 97 100 96 19 31 141 131 13 116 102 76 51 61 69 66 62 57 51 51
338 338 336 335 339 338 341 341 333 329 330 331 328 317 310 312 311 296 289 291 288 266 276 283 289 102 112 117 210 220 295 295 298 309 309 231 306 250 256 254 228 204 155 269 287 257 245 3 339 250 214 203 235 279 272 316 313 250 172 188 195 180 245 263 114 165 140 132 112 124 93 120 137 211 159 90 43 123 99 82 78 61 61 67 66 59 51 48
338 339 338 339 342 341 339 341 334 330 333 337 334 330 324 323 321 310 301 301 294 286 260 261 268 103 88 278 240 248 273 284 294 308 308 309 308 273 236 268 231 192 177 190 263 193 39 7 354 308 258 56 248 170 256 305 264 95 212 201 180 186 210 207 117 108 128 134 146 153 171 192 194 203 84 80 80 73 83 79 73 76 63 58 62 64 57 47
339 340 338 341 342 341 341 345 337 335 337 339 339 336 329 327 320 311 296 277 265 262 265 240 118 115 120 243 274 256 250 241 288 304 273 291 308 282 334 284 200 212 185 199 250 285 272 218 203 236 242 197 259 327 342 322 156 191 146 28 182 172 204 158 157 158 119 150 150 160 204 139 201 187 163 125 108 100 83 74 67 67 65 65 64 63 61 51
341 340 341 341 343 342 339 345 345 341 341 341 337 330 325 317 316 307 316 305 277 249 250 46 102 107 209 267 252 265 260 254 250 250 259 269 232 322 301 342 355 224 198 203 215 113 141 70 38 288 281 247 274 338 301 300 166 181 158 197 246 186 135 160 158 166 150 169 193 135 204 178 125 43 336 143 114 107 95 83 74 64 62 64 62 63 61 57
340 344 343 343 340 339 336 342 345 342 338 339 335 326 317 308 297 301 304 314 318 236 88 84 276 124 288 286 259 314 327 147 253 228 231 180 162 199 226 276 259 20 95 258 264 55 20 107 139 215 276 18 206 223 243 230 209 180 192 146 193 155 168 149 190 174 160 131 244 170 126 47 57 1 229 146 132 104 97 86 72 69 60 56 58 57 61 59
340 340 342 341 337 337 335 337 343 340 337 333 334 331 325 317 264 289 55 60 60 83 105 120 153 155 237 237 304 347 318 264 300 344 350 166 164 191 44 25 17 11 10 348 67 84 323 96 275 355 270 182 201 199 204 221 205 158 183 168 175 174 163 170 143 180 140 151 150 122 87 51 29 7 82 138 118 99 92 86 76 67 66 64 60 58 58 55
338 338 339 337 334 333 334 333 337 338 336 335 338 335 15 55 93 102 55 54 77 73 58 118 133 155 262 340 304 257 235 274 298 253 245 246 170 237 149 144 26 89 54 20 349 163 261 197 122 231 154 209 206 204 201 198 192 161 172 180 162 178 192 147 163 164 150 189 136 121 76 29 35 28 16 68 95 90 77 81 74 73 66 63 63 62 60 60
337 336 337 335 332 333 332 332 333 336 336 337 333 343 47 56 43 75 89 27 51 28 61 201 159 190 214 243 268 308 265 217 258 170 295 33 36 97 82 97 106 100 9 118 269 169 143 316 137 215 209 197 208 209 206 205 191 186 181 179 160 170 177 169 140 152 152 141 103 73 72 41 43 28 15 25 57 84 85 80 76 71 67 62 65 63 63 62
336 337 336 333 332 331 332 330 329 329 338 348 340 5 17 23 1 329 347 55 190 186 201 210 211 277 315 282 266 244 299 34 236 310 317 309 160 116 99 97 52 71 131 178 138 206 136 194 219 205 204 204 206 207 208 87 61 243 132 144 130 132 141 95 127 169 156 97 78 97 72 53 44 32 14 11 38 68 67 74 76 75 75 70 67 68 66 63
334 337 336 332 332 330 329 328 327 324 336 1 351 45 61 341 357 333 331 281 226 258 256 249 203 222 230 257 282 337 343 314 127 262 238 282 158 128 208 73 93 190 205 189 160 278 137 208 224 222 213 209 214 218 239 280 311 58 145 145 168 149 163 199 156 170 148 112 169 82 70 51 44 33 18 20 33 52 57 67 70 75 73 74 71 72 69 72
337 335 334 333 329 329 326 326 323 323 341 90 63 92 183 201 221 168 111 319 316 250 222 250 257 265 283 256 240 163 130 282 313 292 288 125 4 172 192 171 161 211 155 203 227 44 177 217 225 217 190 152 198 189 202 230 254 276 195 168 147 175 106 1 96 98 96 90 108 89 76 62 47 40 30 26 47 54 46 50 59 66 71 71 69 71 72 66
335 336 334 332 331 326 326 322 319 330 31 28 50 88 205 220 82 83 93 271 272 263 269 306 279 263 299 291 250 112 167 224 259 227 213 112 44 210 137 168 186 175 158 179 187 174 213 243 240 121 169 179 191 176 184 214 246 237 195 171 167 170 148 165 86 89 6 108 153 93 86 70 55 43 40 33 29 52 50 53 56 52 63 60 59 62 68 64
335 333 333 333 329 328 321 322 321 20 9 288 143 179 210 134 135 143 110 219 291 312 235 250 215 255 251 306 257 136 231 274 159 280 220 156 151 337 206 197 188 176 199 191 194 189 198 53 151 166 191 183 189 182 183 199 211 226 208 189 175 170 172 141 118 89 84 86 124 98 75 77 43 34 37 21 29 45 33 42 47 49 53 62 63 61 56 58
331 332 333 332 332 326 325 325 42 329 307 65 320 233 178 169 164 180 101 314 304 270 224 333 130 245 237 13 78 140 215 276 219 199 192 147 109 107 242 175 157 206 195 180 194 245 267 257 52 185 181 183 176 179 200 180 198 212 217 206 183 178 129 105 125 114 111 121 274 71 86 47 64 59 47 29 17 34 24 48 53 54 49 47 55 57 55 56
330 331 331 335 330 333 322 335 286 268 40 136 213 175 193 171 187 199 94 83 327 260 323 212 132 312 93 267 133 179 25 264 216 204 160 200 150 146 132 245 179 197 182 171 185 215 220 124 175 223 186 181 181 188 195 178 193 189 223 197 214 154 140 138 138 116 136 150 219 331 141 131 80 70 73 48 43 42 25 32 44 47 51 50 50 51 51 50
328 329 333 330 331 335 38 252 259 17 33 293 242 149 180 135 156 107 61 355 11 351 311 294 48 317 88 237 165 136 260 278 316 1 201 199 193 133 177 212 117 45 150 163 50 247 155 164 197 207 191 176 179 193 186 178 168 208 221 163 177 140 161 150 148 129 112 74 42 42 70 120 124 75 90 100 68 54 42 24 25 46 50 51 53 52 54 53
325 329 330 330 323 358 172 236 5 327 211 230 128 140 169 156 77 14 97 44 329 334 317 323 239 44 236 283 136 220 236 235 316 318 276 190 145 231 207 197 180 161 159 161 198 352 157 146 194 188 188 176 192 190 156 176 167 222 206 159 172 171 169 165 139 112 132 117 49 75 82 81 86 143 145 128 92 73 66 31 10 26 45 51 52 55 55 54
322 323 329 330 325 318 150 150 171 236 234 179 144 133 108 142 69 125 177 98 237 31 152 236 65 140 293 290 193 219 273 145 238 348 315 197 238 189 195 206 169 149 178 187 211 278 318 193 186 178 174 186 179 163 156 168 189 277 86 70 51 39 156 148 117 122 115 95 130 188 312 106 101 160 150 115 110 134 131 101 56 16 39 48 55 57 57 57
319 319 321 338 359 33 21 19 202 216 143 156 99 116 97 57 73 24 17 354 2 299 126 265 345 315 309 312 263 8 289 13 270 314 319 331 164 118 51 344 119 150 185 263 281 221 241 291 207 135 188 165 133 107 158 176 177 146 97 93 48 53 99 102 88 122 83 62 113 354 354 121 136 185 183 164 201 164 141 141 123 90 58 53 53 52 55 55
316 311 312 59 107 217 113 315 263 151 148 104 94 69 77 22 89 160 63 282 33 257 315 333 322 294 339 357 322 235 205 230 281 261 251 194 197 159 114 123 85 122 137 168 223 309 2 26 53 235 157 348 105 85 1 149 141 126 133 117 114 5 84 64 14 40 109 105 43 324 88 75 128 199 200 122 109 146 151 155 159 159 131 89 63 56 52 55
313 307 289 128 199 105 151 265 204 125 117 150 91 65 70 21 356 67 234 69 355 325 344 313 313 343 313 321 219 333 329 349 330 351 352 358 13 78 55 274 159 168 143 168 189 154 35 63 245 357 236 135 119 92 352 98 163 75 133 135 136 166 80 120 13 31 54 117 133 338 315 42 13 18 140 127 135 144 146 148 154 147 138 123 104 81 79 70
314 302 284 187 153 134 229 204 121 115 112 99 89 69 56 91 55 324 303 337 248 12 304 196 288 321 307 313 352 333 162 44 327 331 322 294 235 119 104 50 254 244 135 171 159 173 91 260 53 322 27 347 147 142 145 134 193 127 156 149 102 106 97 102 140 74 76 38 30 19 352 79 83 58 131 133 132 123 120 129 134 146 143 136 126 125 114 116
315 307 215 191 169 195 206 137 129 124 97 82 87 40 49 64 50 310 294 313 276 301 286 321 319 314 356 25 302 351 353 161 0 357 340 259 73 33 294 19 29 349 75 119 133 196 127 124 353 27 140 353 126 140 154 79 147 170 44 101 193 136 146 127 150 137 147 123 127 309 65 260 149 262 126 122 119 112 110 118 132 146 150 138 139 138 141 124
318 332 153 90 121 259 199 143 122 125 104 81 59 76 85 50 241 281 296 313 283 297 292 311 314 332 309 346 268 359 135 288 26 332 27 46 17 14 356 330 352 30 292 92 277 72 55 75 332 259 197 62 115 121 116 124 69 1 177 68 74 228 129 87 191 115 115 132 98 17 85 2 70 77 100 113 117 121 133 147 161 159 163 162 156 155 142 134
358 294 6 36 85 291 144 121 108 99 112 66 77 45 69 186 222 325 275 289 302 322 307 312 223 353 313 317 303 8 225 101 327 359 93 83 51 28 330 319 356 12 6 59 242 91 96 51 334 338 32 61 304 339 46 106 157 215 77 313 236 194 108 107 54 35 77 49 33 90 91 59 97 103 137 142 136 145 156 166 164 168 168 169 163 155 154 152
10 344 43 317 5 304 134 115 110 99 72 86 96 91 191 296 205 236 316 329 286 288 318 19 340 27 333 327 305 350 333 351 354 7 29 335 51 15 355 306 261 307 25 293 28 251 122 137 338 82 73 359 34 9 122 66 145 98 80 242 35 54 91 107 128 12 31 98 122 98 176 170 167 223 158 164 165 167 172 175 173 172 172 171 172 162 157 157
14 356 157 34 353 55 129 128 93 49 77 87 65 121 304 93 312 221 286 322 341 3 35 54 275 78 316 4 328 347 330 74 344 16 29 356 111 302 353 322 274 304 307 271 148 30 48 90 8 21 104 349 353 35 26 320 19 170 170 160 106 148 76 344 88 97 92 358 165 244 193 239 221 154 151 185 177 181 180 178 175 176 178 174 163 161 159 154
42 80 1 345 357 69 138 124 72 62 60 64 346 88 279 228 276 268 270 300 229 329 60 316 276 330 18 355 279 286 3 33 325 10 42 333 47 42 36 333 300 327 339 0 103 286 10 108 48 355 77 259 35 39 152 292 327 324 76 51 277 91 129 108 188 158 109 131 96 266 139 255 197 188 190 183 182 173 174 180 184 180 175 169 162 161 159 153
28 40 317 293 21 42 182 84 62 49 53 72 244 156 217 308 274 275 301 298 326 69 333 315 327 289 347 271 1 347 324 45 8 318 72 317 101 300 28 9 356 309 329 327 90 193 51 4 107 293 2 58 17 356 163 223 271 336 37 344 8 18 223 117 44 103 158 152 159 134 303 257 234 292 177 189 177 177 178 179 177 178 170 164 162 160 156 155
59 105 262 319 2 255 54 56 46 37 73 268 92 193 357 237 323 301 302 309 234 330 83 156 318 23 289 336 337 2 311 3 22 12 46 340 41 344 28 21 328 309 327 278 47 4 62 18 107 36 43 27 198 238 196 201 207 191 139 121 156 121 119 93 164 42 91 111 174 133 225 279 256 55 218 177 179 176 181 175 171 168 163 160 161 161 157 156
80 38 288 331 351 76 65 62 30 98 94 70 347 320 338 320 9 318 337 327 66 324 23 91 348 65 340 316 248 330 348 358 335 40 360 60 310 115 303 357 337 286 315 42 289 314 100 129 89 71 110 143 203 223 264 236 185 181 124 86 131 144 93 94 126 208 50 41 107 158 112 273 275 301 261 182 172 176 173 166 163 160 160 161 163 160 160 159
36 172 261 331 3 85 78 57 347 49 86 224 274 323 272 338 141 290 9 349 358 10 357 43 304 10 333 14 330 358 1 348 7 340 308 352 269 323 316 353 334 348 91 356 3 334 67 65 69 13 306 307 312 316 341 59 115 10 17 67 56 35 215 167 177 175 128 124 82 26 98 249 296 333 273 157 160 157 157 162 158 158 161 165 162 163 163 163
118 358 327 320 11 93 79 134 118 128 148 307 63 253 321 239 15 343 356 326 14 345 42 312 330 44 274 13 4 19 324 38 28 22 350 7 327 315 356 8 0 20 24 329 61 315 69 346 105 114 20 339 339 352 356 338 55 66 19 329 337 324 64 134 104 65 87 243 170 116 206 257 277 10 34 130 137 150 159 163 160 159 168 167 166 167 167 163
86 287 343 313 358 49 95 200 129 142 147 132 105 41 351 355 264 285 336 347 344 357 344 323 247 294 333 57 61 248 358 71 280 33 197 293 276 329 318 8 352 22 350 290 310 311 79 304 75 128 140 140 153 187 216 264 280 289 50 342 7 48 354 29 94 19 92 253 92 112 224 261 340 34 164 154 154 156 165 164 170 167 165 169 170 171 168 164
44 90 310 354 9 23 58 37 91 127 134 137 60 277 85 351 326 337 43 298 62 332 92 278 324 23 324 21 22 17 357 351 68 306 13 334 324 314 344 338 27 0 344 13 17 79 103 77 73 139 138 150 193 208 268 358 23 72 326 28 340 11 10 82 97 81 156 184 111 218 163 155 213 210 189 184 169 170 170 175 176 178 177 171 171 171 168 164
140 74 13 347 338 39 52 7 4 22 165 171 102 144 29 4 264 319 7 10 4 9 324 51 345 11 329 53 102 34 344 342 345 64 0 315 287 265 303 292 310 9 348 357 0 87 69 66 5 55 62 79 265 254 288 316 114 120 55 341 352 16 34 71 106 168 167 95 270 257 152 145 207 196 194 187 188 181 183 181 180 177 177 176 172 165 159 153
71 228 113 196 123 291 22 340 16 27 3 65 132 107 128 84 28 35 325 54 327 1 15 317 31 33 331 291 341 82 339 5 1 3 325 271 323 321 349 354 53 356 7 9 346 82 109 108 312 69 33 42 33 22 357 58 49 129 130 95 48 346 60 100 186 176 124 128 196 197 169 184 210 194 194 192 185 186 186 186 184 175 163 162 164 167 167 168
117 153 132 347 74 256 161 310 45 34 47 11 108 100 127 108 105 196 158 313 21 347 29 20 326 342 346 334 98 159 245 57 350 310 253 317 8 328 359 342 343 20 13 15 19 66 90 40 28 73 80 29 15 14 7 57 45 43 41 59 316 81 95 112 109 140 149 176 201 162 182 214 201 196 195 199 192 184 173 151 147 165 177 171 170 172 174 175
25 113 136 14 99 114 333 10 348 28 51 328 53 275 137 152 142 153 10 117 24 327 350 75 315 330 346 359 354 75 312 12 346 4 306 69 326 48 20 192 291 331 19 20 348 337 94 7 22 29 58 355 359 3 21 17 19 219 306 336 60 133 92 82 123 121 99 63 63 136 172 247 252 192 191 166 147 129 135 169 182 180 172 174 176 179 179 178
167 166 154 109 57 331 21 23 13 29 23 339 63 247 93 195 159 179 142 168 148 176 87 223 279 311 347 4 16 12 347 345 5 5 46 356 27 320 66 288 109 316 348 6 13 333 52 112 35 64 69 338 2 8 348 357 32 76 295 291 261 159 158 210 161 209 147 170 134 109 249 250 229 144 133 152 157 169 181 183 180 183 180 177 182 184 181 181
93 270 87 111 94 347 75 352 49 37 350 248 196 277 307 235 193 159 104 189 149 160 175 201 225 148 345 23 359 336 322 322 314 304 319 284 289 303 292 249 282 265 316 35 287 51 45 113 49 41 65 288 293 21 352 350 22 349 278 240 201 248 270 295 297 292 239 141 133 164 224 225 162 158 143 175 176 187 187 184 184 182 185 184 187 185 184 183